Hourly Data Report for October 07, 2013

All times are specified in Local Standard Time (LST). Add 1 hour to adjust for Daylight Saving Time where and when it is observed.

IQALUIT CLIMATE
NUNAVUT

63°44'50.000" N
68°32'40.000" W
33.50 m
2402592
71321
XFB

Download Data

Hourly Data (October 2013)
Hourly Data Report for October 7, 2013
Temp Definition
°C
Dew Point Temp Definition
°C
Rel Hum Definition
%
Wind Dir Definition
10's deg

Wind Spd Definition
km/h
Visibility Definition
km
Stn Press Definition
kPa
Hmdx Definition


Wind Chill Definition


Weather Definition


TIME
00:00 -3.1 -5.4 84 10 9   101.83   -7 LegendNANA
01:00 -2.7 -4.9 85 11 13   101.78   -7 LegendNANA
02:00 -2.5 -4.3 87 11 11   101.75   -7 LegendNANA
03:00 -2.3 -4.0 88 11 11   101.68   -6 LegendNANA
04:00 -2.1 -3.2 92 12 13   101.61   -7 LegendNANA
05:00 -1.7 -2.7 93 11 15   101.58   -7 LegendNANA
06:00 -1.9 -1.9 100 11 15   101.53   -7 LegendNANA
07:00 -1.2 -1.2 100 11 17   101.47   -6 LegendNANA
08:00 -0.3 -1.0 95 14 26   101.41   -6 LegendNANA
09:00 0.1 -1.3 90 14 28   101.35     LegendNANA
10:00 0.3 -2.1 84 13 32   101.30     LegendNANA
11:00 0.5 -2.1 83 13 26   101.25     LegendNANA
12:00 0.5 -2.7 79 13 26   101.15     LegendNANA
13:00 0.5 -3.3 76 11 24   101.06     LegendNANA
14:00 0.6 -3.1 76 11 22   100.96     LegendNANA
15:00 0.1 -2.1 85 11 26   100.88     LegendNANA
16:00 0.2 -2.4 83 11 28   100.71     LegendNANA
17:00 0.0 -2.5 83 10 32   100.63   -7 LegendNANA
18:00 0.0 -2.3 84 11 26   100.55   -6 LegendNANA
19:00 0.0 -2.5 83 11 26   100.45   -6 LegendNANA
20:00 -0.3 -1.8 90 11 24   100.30   -6 LegendNANA
21:00 -0.3 -1.5 92 10 28   100.12   -7 LegendNANA
22:00 0.0 -0.7 95 11 24   99.95   -6 LegendNANA
23:00 0.4 -0.5 94 10 32   99.74     LegendNANA

Notes on Data Quality.

Legend

  • E = Estimated
  • M = Missing
  • NA = Not Available
  • ‡ = Partner data that is not subject to review by the National Climate Archives
Date modified: